This is the latest recevied weather packets stored in our database for station/object OM1ATS-6. If no packets are shown the sender has not sent any weather packets the latest 10 day(s).
| Time | Temp. | Humidity | Pressure | Rain* | Wind** | Luminosity | Snow |
|---|---|---|---|---|---|---|---|
| 1777949530 | 11.11° C | 55% | 1012.7 hPa | - | - | - | - |
| 1777949230 | 11.11° C | 55% | 1012.7 hPa | - | - | - | - |
| 1777948930 | 11.11° C | 55% | 1012.7 hPa | - | - | - | - |
| 1777948630 | 11.11° C | 55% | 1012.9 hPa | - | - | - | - |
| 1777948329 | 11.11° C | 55% | 1012.9 hPa | - | - | - | - |
| 1777948030 | 10.56° C | 55% | 1012.9 hPa | - | - | - | - |
| 1777947730 | 10.56° C | 55% | 1012.9 hPa | - | - | - | - |
| 1777947430 | 10.56° C | 55% | 1012.6 hPa | - | - | - | - |
| 1777947130 | 10.56° C | 54% | 1012.6 hPa | - | - | - | - |
| 1777946830 | 10.56° C | 53% | 1012.6 hPa | - | - | - | - |
| 1777946530 | 10.56° C | 53% | 1012.6 hPa | - | - | - | - |
| 1777946230 | 11.11° C | 52% | 1012.9 hPa | - | - | - | - |
| 1777945930 | 11.11° C | 52% | 1012.9 hPa | - | - | - | - |
| 1777945629 | 11.67° C | 52% | 1012.9 hPa | - | - | - | - |
| 1777945331 | 11.67° C | 51% | 1012.9 hPa | - | - | - | - |
| 1777945030 | 11.67° C | 51% | 1013.2 hPa | - | - | - | - |
| 1777944729 | 11.67° C | 51% | 1013.2 hPa | - | - | - | - |
| 1777944429 | 11.67° C | 51% | 1013.2 hPa | - | - | - | - |
| 1777944130 | 12.22° C | 51% | 1013.2 hPa | - | - | - | - |
| 1777943830 | 12.22° C | 51% | 1013 hPa | - | - | - | - |
| 1777943529 | 12.22° C | 51% | 1013 hPa | - | - | - | - |
| 1777943230 | 12.22° C | 50% | 1013 hPa | - | - | - | - |
| 1777942930 | 12.78° C | 50% | 1013 hPa | - | - | - | - |
| 1777942630 | 12.78° C | 50% | 1013.4 hPa | - | - | - | - |
| 1777942330 | 12.78° C | 50% | 1013.4 hPa | - | - | - | - |
* Rain since midnight (hover to see other rain measurements)
** Current wind speed in m/s (hover to see current wind gust speed)